Location: Newark
(49.8969°N, 3.3422°E)
Time: 15:42:55
(UTC+00:00)

Vanguard 1 - Visible Passes

Search period start: 26 January 2020 00:00
Search period end: 05 February 2020 00:00
Orbit: 651 x 3833 km, 34.2° (Epoch: 25 January)

Date Brightness Start Highest point End Pass type
(mag) Time Alt. Az. Time Alt. Az. Time Alt. Az.
26 Jan 11.7 17:56:14 10° SSW 17:58:38 14° S 18:01:18 10° SE visible
26 Jan 12.3 20:15:24 10° SW 20:16:00 11° SSW 20:16:00 11° SSW visible
27 Jan 11.8 18:16:54 10° SSW 18:19:14 14° S 18:21:52 10° SSE visible
28 Jan 11.9 18:37:51 10° SSW 18:39:53 12° S 18:42:07 10° SSE visible
29 Jan 12.0 18:59:32 10° SSW 19:00:31 10° S 19:01:33 10° S visible
31 Jan 11.8 17:21:14 10° SSW 17:22:39 11° S 17:24:06 10° SSE visible
